STARLINK-5570, 55433

Orbit data source: Space-Track

STARLINK-5570, 55433 is a payload satellite owned by SpaceX/Seattle (US) in LEO that was launched on Tue, 31 Jan 2023 UTC via an FALCON 9 launch vehicle from the Air Force Western Test Range (AFWTR). Payload-class satellites include a variety of spacecraft equipped with specific instruments for various scientific and technological missions. These include communications satellites like Starlink; space stations such as the ISS; scientific satellites like the Hubble; Earth observation satellites from companies like Planet Labs, Umbra, and HawkEye 360; GPS; miniature CubeSats for education and research; and military/defense satellites.

Loading next visibility...
Identifier
55433, 2023-014AU
Orbit
LEO
Country
Flag of USUS
Related business
Manufacturer
SpaceX/Seattle
Mission
Operational Commercial Communications
Bus & Motor
STARLINK, Unknown motor
Mass
305 kg wet, ~290 kg dry
Launch date (UTC)
2023-01-31 (3 years ago)
Launch vehicle
FALCON 9
Launch site
Air Force Western Test Range (AFWTR)
Object type
Payload
Rocket body
Debris
Shape & HBR
Box + 1 Pan, 10.1 m
Radar Cross Section
13.562 m², Large (>1 m²)

Expand to show TLE details & history
Last TLE update: 2 days ago

TLE from 2 days ago
0 STARLINK-5570
1 55433U 23014AU  26171.44909970  .00000383  00000-0  39905-4 0  9993
2 55433  69.9989 205.2550 0003695 266.7613  93.3123 14.98334562186466
Epoch: 2026-06-20T10:46Z
TLE epoch observation values (Epoch: 2026-06-20T10:46:42.214Z)
Latitude
-0.00003°
Longitude
134.91553°
Altitude
574.615 km
Speed
7.574 km/s
True Right ascension
13h 41m 01s
True Declination
0° 00' 00"
Sunlit
Object was in full shadow at epoch
Visualization orbit readout
Latitude
Unknown
Longitude
Unknown
Altitude
Unknown
Speed
Unknown
Apparent Right ascension
Unknown
Apparent Declination
Unknown
Sunlit
N/A
Visualization observer readout
Local Sidereal Time
21:25:42
Azimuth
Unknown
Elevation
Unknown
Doppler factor
Unknown
Orbital elements
Apogee altitude
572.557 km
Perigee altitude
567.423 km
Semi-major axis
6,948.127 km
Eccentricity
0.00037
Inclination
69.9989°
RAAN
205.255°
Arg. of periapsis
266.7613°
True anomaly
93.35457°
Mean anomaly
93.3123°
Eccentric anomaly
93.33343°
Mean motion
3.7475 °/min
Orbital period
96.06 mins
BSTAR
0.000039905
Loading maneuver chart data...
Computing Atmospheric mass density...

Documentation

Showing up to 5 results
|